Location: Dammartin
(48.9032°N, 1.6195°E)
Time: 10:55:19
(UTC+00:00)

XW-2C - Visible Passes

Search period start: 01 December 2023 00:00
Search period end: 11 December 2023 00:00
Orbit: 464 x 475 km, 97.5° (Epoch: 01 December)

Date Brightness Start Highest point End Pass type
(mag) Time Alt. Az. Time Alt. Az. Time Alt. Az.
01 Dec ? 06:29:06 10° NNE 06:32:39 68° ESE 06:36:11 10° S visible
01 Dec ? 17:06:36 10° SE 17:09:57 45° ENE 17:13:23 10° N visible
01 Dec ? 18:41:24 10° SW 18:43:22 14° W 18:45:21 10° WNW visible
02 Dec ? 06:00:29 10° NNE 06:03:39 30° E 06:06:49 10° SSE visible
02 Dec ? 16:38:25 10° ESE 16:41:13 22° ENE 16:44:01 10° NNE visible
02 Dec ? 18:11:07 10° SSW 18:14:13 29° W 18:17:22 10° NW visible
03 Dec ? 05:32:25 10° NE 05:34:30 15° E 05:36:34 10° SE visible
03 Dec ? 17:41:40 10° S 17:45:10 66° W 17:48:42 10° NNW visible
04 Dec ? 06:35:22 10° NNE 06:38:56 81° ESE 06:42:28 10° S visible
04 Dec ? 17:12:44 10° SSE 17:16:10 54° ENE 17:19:39 10° N visible
04 Dec ? 18:48:07 10° WSW 18:49:38 12° W 18:51:10 10° WNW visible
05 Dec ? 06:06:33 10° NNE 06:09:50 35° E 06:13:06 10° SSE visible
05 Dec ? 16:44:19 10° SE 16:47:15 25° ENE 16:50:14 10° N visible
05 Dec ? 18:17:22 10° SSW 18:20:20 25° W 18:23:20 10° NW visible
06 Dec ? 05:38:11 10° NE 05:40:34 17° E 05:42:57 10° SE visible
06 Dec ? 17:47:39 10° S 17:51:07 55° W 17:54:37 10° NNW visible
07 Dec ? 06:41:16 10° NNE 06:44:50 87° WNW 06:48:21 10° SSW visible
07 Dec ? 17:18:30 10° SSE 17:21:59 63° ENE 17:25:30 10° N visible
07 Dec ? 18:54:40 10° WSW 18:55:31 11° W 18:56:22 10° WNW visible
08 Dec ? 06:12:14 10° NNE 06:15:37 40° E 06:18:57 10° S visible
08 Dec ? 16:49:51 10° SE 16:52:55 29° ENE 16:56:02 10° N visible
08 Dec ? 18:23:15 10° SSW 18:26:04 22° W 18:28:54 10° NW visible
09 Dec ? 05:43:38 10° NE 05:46:15 19° E 05:48:50 10° SE visible
09 Dec ? 17:53:17 10° S 17:56:42 47° W 18:00:09 10° NNW visible
10 Dec ? 06:46:46 10° N 06:50:19 75° WNW 06:53:49 10° SSW visible
10 Dec ? 17:23:55 10° SSE 17:27:25 74° ENE 17:30:57 10° N visible
